20.04.2024;05:00;72
20.04.2024;04:00;71
20.04.2024;03:00;69
20.04.2024;02:00;69
20.04.2024;01:00;70
20.04.2024;00:00;71
19.04.2024;23:00;71
19.04.2024;22:00;73
19.04.2024;21:00;64
19.04.2024;20:00;66
19.04.2024;19:00;69
19.04.2024;18:00;72
19.04.2024;17:00;73
19.04.2024;16:00;76
19.04.2024;15:00;76
19.04.2024;14:00;76
19.04.2024;13:00;77
19.04.2024;12:00;76
19.04.2024;11:00;75
19.04.2024;10:00;70
19.04.2024;09:00;67
19.04.2024;08:00;48
19.04.2024;07:00;36
19.04.2024;06:00;42
19.04.2024;05:00;49
19.04.2024;04:00;57
19.04.2024;03:00;63
19.04.2024;02:00;46
19.04.2024;01:00;33
19.04.2024;00:00;37
18.04.2024;23:00;23
18.04.2024;22:00;33
18.04.2024;21:00;75
18.04.2024;20:00;88
18.04.2024;19:00;88
18.04.2024;18:00;90
18.04.2024;17:00;87
18.04.2024;16:00;86
18.04.2024;15:00;84
18.04.2024;14:00;79
18.04.2024;13:00;75
18.04.2024;12:00;77
18.04.2024;11:00;78
18.04.2024;10:00;71
18.04.2024;09:00;67
18.04.2024;08:00;59
18.04.2024;07:00;47
18.04.2024;06:00;56
